Date,TemperatureHighF,TemperatureAvgF,TemperatureLowF,DewpointHighF,DewpointAvgF,DewpointLowF,HumidityHigh,HumidityAvg,HumidityLow,PressureMaxIn,PressureMinIn,WindSpeedMaxMPH,WindSpeedAvgMPH,GustSpeedMaxMPH,PrecipitationSumIn
2013-1-1,28.0,22.2,10.0,20.0,10.7,-3.0,75,61,52,29.06,28.83,0,-999,0,0.00
2013-1-2,22.0,10.8,0.0,10.0,-1.3,-12.0,67,58,48,29.24,29.03,0,-999,0,0.00
2013-1-3,21.0,6.2,-4.0,4.0,-6.4,-14.0,64,56,45,29.25,29.13,0,-999,0,0.00
2013-1-4,33.0,21.1,5.0,21.0,10.9,-6.0,71,64,58,29.12,28.93,0,-999,0,0.00
2013-1-5,32.0,26.1,15.0,20.0,14.6,6.0,73,62,49,29.41,28.95,0,-999,0,0.00
2013-1-6,38.0,25.1,14.0,25.0,16.2,5.0,73,69,59,29.37,29.08,0,-999,0,0.00
2013-1-7,30.0,24.4,11.0,22.0,14.3,2.0,79,66,49,29.54,29.11,0,-999,0,0.00
2013-1-8,39.0,23.9,9.0,25.0,14.5,1.0,77,67,54,29.52,29.39,0,-999,0,0.00
2013-1-9,41.0,28.8,17.0,28.0,19.9,10.0,76,69,58,29.56,29.12,0,-999,0,0.00
2013-1-10,40.0,34.8,26.0,27.0,22.3,16.0,69,60,53,29.69,29.14,0,-999,0,0.00
2013-1-11,39.0,29.3,19.0,27.0,20.2,12.0,78,69,54,29.68,29.40,0,-999,0,0.00
2013-1-12,42.0,36.2,33.0,36.0,30.7,27.0,83,80,77,29.40,29.29,0,-999,0,0.00
2013-1-13,43.0,38.9,34.0,38.0,34.4,30.0,86,84,80,29.32,29.14,0,-999,0,0.00
2013-1-14,53.0,41.4,33.0,46.0,33.8,23.0,88,76,53,29.40,29.03,0,-999,0,0.00
2013-1-15,38.0,31.4,25.0,26.0,21.3,18.0,77,66,54,29.48,29.39,0,-999,0,0.00
2013-1-16,33.0,28.7,27.0,26.0,21.9,19.0,80,76,70,29.42,28.97,0,-999,0,0.00
2013-1-17,40.0,27.9,19.0,30.0,19.0,6.0,83,70,56,29.27,28.97,0,-999,0,0.00
2013-1-18,19.0,12.0,6.0,6.0,-4.4,-11.0,59,47,39,29.54,29.22,0,-999,0,0.00
2013-1-19,43.0,29.4,11.0,24.0,16.0,0.0,64,57,47,29.49,29.02,0,-999,0,0.00
2013-1-20,45.0,33.0,21.0,29.0,19.2,2.0,75,57,40,29.06,28.68,0,-999,0,0.00
2013-1-21,27.0,18.9,11.0,9.0,2.5,-4.0,67,49,40,29.21,28.98,0,-999,0,0.00
2013-1-22,22.0,14.4,3.0,10.0,2.8,-7.0,71,60,39,29.19,28.92,0,-999,0,0.00
2013-1-23,5.0,0.3,-4.0,-7.0,-13.1,-18.0,65,53,41,29.26,29.16,0,-999,0,0.00
2013-1-24,13.0,1.0,-7.0,-8.0,-15.2,-20.0,52,46,36,29.23,29.16,0,-999,0,0.00
2013-2-2,27.0,22.2,10.0,9.0,7.1,0.0,62,52,44,29.35,29.18,0,-999,0,0.00
2013-2-3,30.0,22.6,15.0,15.0,11.1,7.0,70,61,53,29.19,28.87,0,-999,0,0.00
2013-2-4,27.0,20.1,14.0,11.0,5.6,-3.0,70,54,39,29.04,28.85,0,-999,0,0.00
2013-2-5,27.0,16.8,7.0,8.0,1.9,-4.0,60,52,43,29.17,29.04,0,-999,0,0.00
2013-2-6,34.0,23.8,15.0,21.0,11.3,-4.0,71,59,41,29.43,29.09,0,-999,0,0.00
2013-2-7,23.0,16.0,9.0,2.0,-3.3,-7.0,49,42,32,29.67,29.43,0,-999,0,0.00
2013-2-8,20.0,15.2,12.0,10.0,5.0,0.0,78,64,47,29.65,28.96,0,-999,0,0.00
2013-2-9,21.0,14.9,10.0,15.0,7.7,0.0,81,73,62,29.31,28.87,0,-999,0,0.00
2013-2-10,37.0,18.8,6.0,13.0,2.6,-5.0,61,50,35,29.53,29.32,0,-999,0,0.00
2013-2-11,33.0,23.0,9.0,27.0,14.8,-2.0,79,70,57,29.50,28.79,0,-999,0,0.00
2013-2-12,43.0,34.5,29.0,29.0,25.6,22.0,82,70,53,29.00,28.76,0,-999,0,0.00
2013-2-13,42.0,30.8,24.0,23.0,18.9,15.0,70,61,47,29.02,28.91,0,-999,0,0.00
2013-2-14,39.0,29.3,21.0,23.0,17.7,13.0,72,62,48,29.15,28.89,0,-999,0,0.00
2013-2-15,49.0,31.8,18.0,31.0,20.4,11.0,74,63,46,29.15,29.06,0,-999,0,0.00
2013-2-16,43.0,32.2,25.0,27.0,19.8,10.0,77,61,46,29.13,28.93,0,-999,0,0.00
2013-2-17,25.0,17.5,11.0,11.0,5.0,-2.0,72,58,48,28.93,28.52,0,-999,0,0.00
2013-2-18,26.0,16.1,7.0,3.0,-2.0,-5.0,59,45,31,29.25,28.77,0,-999,0,0.00
2013-2-19,46.0,28.1,14.0,29.0,12.2,-5.0,77,52,35,29.30,28.74,0,-999,0,0.00
2013-2-20,34.0,28.8,20.0,28.0,19.0,9.0,81,67,53,28.89,28.68,0,-999,0,0.00
2013-2-21,26.0,20.3,16.0,11.0,8.2,5.0,68,59,48,29.34,28.89,0,-999,0,0.00
2013-2-22,43.0,26.9,12.0,22.0,14.6,5.0,74,61,42,29.56,29.34,0,-999,0,0.00
2013-2-23,40.0,31.6,26.0,28.0,23.3,17.0,78,71,62,29.50,29.14,0,-999,0,0.00
2013-2-24,34.0,31.0,28.0,28.0,25.4,23.0,82,79,76,29.15,28.93,0,-999,0,0.00
2013-2-25,47.0,29.1,23.0,35.0,23.4,17.0,81,78,61,29.40,29.07,0,-999,0,0.00
2013-2-26,46.0,34.1,29.0,34.0,26.7,24.0,82,74,60,29.51,29.37,0,-999,0,0.00
2013-2-27,37.0,32.3,29.0,31.0,26.6,24.0,83,80,75,29.37,28.81,0,-999,0,0.00
2013-2-28,51.0,37.0,29.0,38.0,29.4,25.0,83,75,59,28.82,28.72,0,-999,0,0.00
2013-3-1,41.0,33.6,29.0,30.0,26.0,23.0,82,74,62,28.86,28.72,0,-999,0,0.00
2013-3-2,48.0,34.6,26.0,30.0,23.8,20.0,78,66,48,28.85,28.80,0,-999,0,0.00
2013-3-3,44.0,33.3,28.0,32.0,24.6,20.0,79,70,59,28.83,28.74,0,-999,0,0.00
2013-3-4,37.0,28.6,24.0,24.0,18.8,16.0,72,66,56,28.93,28.75,0,-999,0,0.00
2013-3-5,46.0,33.5,24.0,29.0,22.7,16.0,76,65,50,29.27,28.93,0,-999,0,0.00
2013-3-6,40.0,33.6,29.0,29.0,25.6,22.0,81,72,61,29.37,29.26,0,-999,0,0.00
2013-3-7,37.0,30.7,28.0,25.0,22.4,20.0,79,72,60,29.34,29.22,0,-999,0,0.00
2013-3-8,49.0,35.1,26.0,26.0,21.3,16.0,80,59,38,29.37,29.17,0,-999,0,0.00
2013-3-9,57.0,37.5,24.0,24.0,18.7,13.0,70,49,26,29.53,29.35,0,-999,0,0.00
2013-3-10,51.0,33.9,20.0,31.0,22.3,13.0,76,64,45,29.57,29.47,0,-999,0,0.00
2013-3-11,56.0,38.7,27.0,34.0,27.1,21.0,79,64,41,29.48,29.31,0,-999,0,0.00
2013-3-12,46.0,41.3,37.0,41.0,36.2,29.0,86,83,73,29.32,28.91,0,-999,0,0.00
2013-3-13,50.0,39.4,29.0,40.0,29.3,19.0,86,69,47,28.95,28.88,0,-999,0,0.00
2013-3-14,36.0,27.0,16.0,20.0,15.5,3.0,77,62,46,28.97,28.84,0,-999,0,0.00
2013-3-15,40.0,24.5,13.0,21.0,9.6,0.0,76,53,36,28.99,28.79,0,-999,0,0.00
2013-3-16,44.0,27.7,17.0,20.0,12.9,7.0,76,55,34,29.06,28.83,0,-999,0,0.00
2013-3-17,34.0,22.4,11.0,13.0,4.7,-3.0,67,47,32,29.47,29.05,0,-999,0,0.00
2013-3-18,45.0,24.5,6.0,15.0,4.7,-6.0,58,44,27,29.59,29.42,0,-999,0,0.00
2013-3-19,35.0,28.6,21.0,27.0,21.0,15.0,77,73,58,29.42,28.87,0,-999,0,0.00
2013-3-20,40.0,28.4,21.0,22.0,17.2,10.0,78,64,47,28.93,28.84,0,-999,0,0.00
2013-3-21,52.0,30.1,15.0,22.0,14.2,7.0,71,54,31,28.95,28.77,0,-999,0,0.00
2013-3-22,45.0,29.8,19.0,22.0,15.1,10.0,69,55,37,28.87,28.78,0,-999,0,0.00
2013-3-23,42.0,30.4,20.0,20.0,16.8,11.0,70,57,39,28.93,28.78,0,-999,0,0.00
2013-3-24,59.0,36.4,27.0,30.0,20.8,15.0,67,54,33,28.98,28.90,0,-999,0,0.00
2013-3-25,49.0,33.5,22.0,30.0,21.5,13.0,71,62,45,28.96,28.75,0,-999,0,0.00
2013-3-26,55.0,37.5,27.0,25.0,20.9,16.0,72,53,31,28.96,28.76,0,-999,0,0.00
2013-3-27,51.0,36.7,25.0,27.0,22.2,15.0,71,57,38,29.07,28.93,0,-999,0,0.00
2013-3-28,50.0,38.9,32.0,34.0,28.0,25.0,78,66,48,29.19,29.07,0,-999,0,0.00
2013-3-29,55.0,41.5,32.0,35.0,28.4,24.0,74,61,43,29.22,29.16,0,-999,0,0.00
2013-3-30,58.0,41.6,29.0,29.0,23.1,15.0,71,51,27,29.28,29.19,0,-999,0,0.00
2013-3-31,62.0,41.1,23.0,31.0,22.0,-99.9,68,50,30,29.29,28.99,0,-999,0,0.00
2013-4-1,57.0,41.2,29.0,40.0,30.4,11.0,80,66,46,28.99,28.69,0,-999,0,0.00
2013-4-2,39.0,29.5,23.0,17.0,10.5,7.0,50,45,36,29.04,28.92,0,-999,0,0.00
2013-4-3,50.0,31.9,23.0,15.0,10.3,8.0,55,41,24,29.28,29.03,0,-999,0,0.00
2013-4-4,65.0,39.0,26.0,26.0,14.8,9.0,53,38,23,29.42,29.16,0,-999,0,0.00
2013-4-5,60.0,42.4,32.0,28.0,22.1,17.0,62,46,28,29.16,28.86,0,-999,0,0.00
2013-4-6,51.0,31.9,23.0,18.0,8.9,5.0,56,39,23,29.50,29.05,0,-999,0,0.00
2013-4-7,61.0,39.3,22.0,32.0,20.3,8.0,63,48,30,29.50,29.14,0,-999,0,0.00
2013-4-8,74.0,47.7,35.0,39.0,31.3,27.0,77,56,27,29.30,29.12,0,-999,0,0.00
2013-4-9,59.0,46.8,41.0,44.0,36.1,29.0,78,67,49,29.29,29.08,0,-999,0,0.00
2013-4-10,60.0,47.6,41.0,47.0,38.8,33.0,81,72,57,29.18,29.07,0,-999,0,0.00
2013-4-11,52.0,43.0,38.0,41.0,32.0,23.0,83,66,47,29.34,29.06,0,-999,0,0.00
2013-4-12,37.0,32.8,30.0,27.0,23.9,19.0,81,70,50,29.40,29.05,0,-999,0,0.00
2013-4-13,54.0,40.0,31.0,38.0,31.0,26.0,82,71,53,29.11,28.98,0,-999,0,0.00
2013-4-14,53.0,41.3,32.0,35.0,30.6,24.0,81,67,48,29.38,29.09,0,-999,0,0.00
2013-4-15,64.0,42.7,26.0,39.0,28.7,20.0,79,60,36,29.56,29.38,0,-999,0,0.00
2013-4-16,69.0,48.4,32.0,46.0,37.6,25.0,78,67,42,29.57,29.19,0,-999,0,0.00
2013-4-17,71.0,52.2,38.0,47.0,33.6,23.0,83,52,27,29.52,29.19,0,-999,0,0.00
2013-4-18,65.0,46.5,28.0,37.0,28.8,20.0,71,52,35,29.63,29.34,0,-999,0,0.00
2013-4-19,78.0,61.0,48.0,58.0,49.5,32.0,79,67,50,29.34,28.83,0,-999,0,0.00
2013-4-20,62.0,49.5,37.0,56.0,35.2,19.0,83,60,35,29.37,28.81,0,-999,0,0.00
2013-4-21,66.0,41.2,30.0,27.0,19.5,15.0,59,43,23,29.86,29.38,0,-999,0,0.00
2013-4-22,61.0,41.1,27.0,31.0,22.4,15.0,69,50,29,29.94,29.80,0,-999,0,0.00
2013-4-23,39.0,35.2,28.0,33.0,28.3,20.0,82,76,70,29.80,29.37,0,-999,0,0.00
2013-4-24,84.0,54.8,38.0,55.0,42.6,33.0,84,67,36,29.41,28.97,0,-999,0,0.00
2013-4-25,73.0,53.4,37.0,44.0,34.0,22.0,79,50,25,29.47,28.97,0,-999,0,0.00
2013-4-26,69.0,46.5,29.0,37.0,28.4,20.0,74,51,30,29.61,29.47,0,-999,0,0.00
2013-4-27,72.0,50.0,31.0,40.0,31.6,23.0,74,52,28,29.61,29.47,0,-999,0,0.00
2013-4-28,78.0,53.4,33.0,44.0,32.8,-99.9,74,50,28,29.52,29.42,0,-999,0,0.00
2013-4-29,79.0,54.8,36.0,46.0,36.2,27.0,70,52,30,29.45,29.36,0,-999,0,0.00
2013-4-30,83.0,59.0,41.0,42.0,34.4,24.0,62,42,22,29.57,29.44,0,-999,0,0.00
2013-5-1,87.0,57.0,34.0,44.0,31.9,22.0,64,42,21,29.65,29.56,0,-999,0,0.01
2013-5-2,80.0,53.3,38.0,45.0,34.0,28.0,68,50,28,29.69,29.56,0,-999,0,0.00
2013-5-3,84.0,52.6,34.0,50.0,36.1,26.0,76,56,31,29.72,29.58,0,-999,0,0.00
2013-5-4,78.0,53.3,37.0,45.0,36.3,26.0,79,56,30,29.58,29.47,0,-999,0,0.00
2013-5-5,78.0,51.2,30.0,44.0,33.6,23.0,77,55,29,29.54,29.42,0,-999,0,0.00
2013-5-6,82.0,54.3,32.0,49.0,36.8,25.0,77,56,26,29.46,29.33,0,-999,0,0.00
2013-5-7,87.0,61.9,39.0,55.0,44.5,33.0,79,58,26,29.37,29.28,0,-999,0,0.00
2013-5-8,80.0,62.2,49.0,59.0,51.5,43.0,81,70,47,29.42,29.29,0,-999,0,0.00
2013-5-9,70.0,59.3,54.0,58.0,52.4,49.0,83,78,64,29.28,29.11,0,-992,0,0.00
2013-5-10,86.0,64.6,54.0,60.0,52.9,49.0,85,68,41,29.15,29.10,0,-999,0,0.00
2013-5-11,67.0,59.3,54.0,59.0,52.9,48.0,83,80,74,29.11,28.90,0,-999,0,0.00
2013-5-12,72.0,60.1,49.0,54.0,45.7,32.0,86,61,45,28.93,28.78,0,-999,0,0.00
2013-5-13,61.0,47.6,37.0,35.0,29.2,26.0,66,50,36,29.23,28.98,0,-999,0,0.00
2013-5-14,64.0,46.9,35.0,34.0,29.3,26.0,73,52,31,29.23,29.15,0,-999,0,0.00
2013-5-15,71.0,46.3,31.0,42.0,32.8,23.0,75,62,31,29.23,28.90,0,-999,0,0.00
2013-5-16,81.0,64.0,45.0,51.0,27.7,-99.9,82,49,28,29.02,28.82,0,-999,0,0.00
2013-5-17,69.0,54.8,45.0,43.0,35.3,-99.9,66,53,35,29.41,29.02,0,-999,0,0.00
2013-5-18,75.0,54.9,40.0,48.0,39.5,32.0,76,58,31,29.50,29.41,0,-999,0,0.00
2013-5-19,72.0,54.4,47.0,53.0,44.3,40.0,78,70,51,29.55,29.42,0,-999,0,0.00
2013-5-20,74.0,58.1,50.0,59.0,50.1,45.0,82,75,60,29.42,29.16,0,-999,0,0.00
2013-5-21,57.0,55.0,49.0,52.0,49.9,43.0,83,82,80,29.21,29.15,0,-999,0,0.00
2013-5-23,68.0,64.7,63.0,63.0,60.3,59.0,87,86,84,29.03,28.99,0,-999,0,0.08
2013-5-24,72.0,61.3,49.0,64.0,55.2,44.0,88,81,68,29.05,28.85,0,-999,0,0.08
2013-5-25,49.0,45.7,36.0,44.0,41.0,31.0,86,84,82,29.05,28.91,0,-999,0,0.00
2013-5-26,58.0,45.5,35.0,42.0,36.1,31.0,85,71,53,29.23,28.87,0,-999,0,0.00
2013-5-27,72.0,52.8,35.0,44.0,36.3,29.0,81,57,33,29.39,29.23,0,-999,0,0.00
2013-5-28,78.0,56.7,37.0,48.0,38.8,30.0,77,55,33,29.45,29.37,0,-999,0,0.00
2013-5-29,59.0,54.2,48.0,53.0,47.5,38.0,84,78,66,29.38,29.21,0,-999,0,0.00
2013-5-30,89.0,70.4,56.0,66.0,58.8,51.0,86,69,44,29.27,29.21,0,-999,0,0.00
2013-5-31,95.0,75.4,59.0,69.0,60.9,54.0,84,64,39,29.30,29.14,0,-999,0,0.00
2013-6-1,97.0,75.9,62.0,70.0,62.2,56.0,81,65,35,29.19,29.06,0,-999,0,0.00
2013-6-2,90.0,70.3,65.0,71.0,59.8,-99.9,83,77,53,29.07,28.98,0,-999,0,0.00
2013-6-7,54.0,52.7,49.0,47.0,45.5,44.0,85,77,71,29.32,29.11,0,-999,0,0.00
2013-6-8,62.0,53.0,49.0,54.0,48.2,45.0,86,84,75,29.11,28.88,0,-999,0,0.00
2013-6-10,66.0,57.9,50.0,56.0,50.2,44.0,81,76,68,29.41,29.28,0,-999,0,0.00
2013-6-11,62.0,55.9,52.0,53.0,49.9,47.0,85,80,71,29.24,28.80,0,-999,0,0.00
2013-6-12,64.0,57.7,53.0,54.0,50.4,48.0,85,77,64,29.02,28.77,0,-999,0,0.00
2013-6-13,70.0,60.7,48.0,53.0,50.6,43.0,83,70,55,29.02,28.93,0,-999,0,0.00
2013-6-14,81.0,60.9,51.0,57.0,49.7,46.0,84,69,38,28.98,28.90,0,-999,0,0.00
2013-6-15,73.0,56.7,49.0,50.0,46.3,43.0,79,70,43,29.12,28.98,0,-999,0,0.00
2013-6-16,77.0,62.6,48.0,56.0,50.2,41.0,79,65,46,29.14,28.95,0,-999,0,0.00
2013-6-17,72.0,58.7,53.0,60.0,51.8,48.0,83,78,66,29.04,29.01,0,-999,0,0.00
2013-6-18,59.0,56.9,54.0,52.0,50.9,49.0,83,80,78,29.15,29.13,0,-999,0,0.00
2013-6-19,75.0,58.4,49.0,53.0,47.0,41.0,85,68,40,29.35,29.13,0,-999,0,0.00
2013-7-3,88.0,76.3,60.0,73.0,67.3,56.0,88,75,61,29.41,29.32,0,-999,0,0.00
2013-7-4,95.0,79.5,66.0,75.0,69.0,62.0,87,72,51,29.41,29.28,0,-999,0,0.00
2013-7-5,94.0,75.9,68.0,75.0,67.8,63.0,85,77,54,29.37,29.31,0,-999,0,0.00
2013-7-7,92.0,80.2,71.0,70.0,67.4,65.0,82,66,49,29.23,29.14,0,-999,0,0.00
2013-7-8,80.0,71.0,62.0,70.0,64.5,56.0,86,80,70,29.29,29.14,0,-999,0,0.00
2013-7-9,75.0,66.1,61.0,66.0,60.2,56.0,86,82,72,29.33,29.28,0,-999,0,0.00
2013-7-10,74.0,67.6,62.0,67.0,62.5,57.0,87,84,77,29.31,29.01,0,-999,0,0.00
2013-7-11,82.0,72.7,66.0,72.0,67.4,61.0,89,84,71,29.18,28.98,0,-999,0,0.00
2013-7-12,86.0,67.3,59.0,65.0,57.7,54.0,85,73,49,29.43,29.17,0,-999,0,0.00
2013-7-13,83.0,69.0,56.0,65.0,58.6,50.0,84,71,54,29.54,29.44,0,-999,0,0.00
2013-7-14,89.0,74.7,64.0,71.0,65.1,59.0,85,73,55,29.52,29.42,0,-999,0,0.00
2013-7-15,94.0,74.3,64.0,72.0,64.2,59.0,85,73,46,29.43,29.32,0,-999,0,0.00
2013-7-16,93.0,76.3,63.0,72.0,64.5,57.0,83,69,46,29.39,29.34,0,-999,0,0.00
2013-7-17,96.0,77.0,66.0,73.0,66.3,61.0,85,71,48,29.40,29.21,0,-999,0,0.00
2013-7-18,94.0,75.9,67.0,72.0,66.2,62.0,84,73,48,29.24,29.18,0,-999,0,0.00
2013-7-19,95.0,78.9,67.0,76.0,68.7,62.0,86,72,50,29.17,28.92,0,-999,0,0.00
2013-7-20,90.0,76.4,66.0,71.0,64.6,59.0,79,68,52,29.03,28.88,0,-999,0,0.00
2013-7-21,80.0,68.8,61.0,64.0,59.7,56.0,84,74,57,29.22,29.03,0,-999,0,0.00
2013-7-22,77.0,65.2,59.0,67.0,59.2,54.0,86,82,69,29.26,29.15,0,-999,0,0.00
2013-7-23,73.0,65.0,61.0,66.0,59.9,57.0,87,84,76,29.14,28.78,0,-999,0,0.00
2013-7-24,82.0,69.6,56.0,69.0,60.1,45.0,87,73,57,29.20,28.82,0,-999,0,0.00
2013-7-25,74.0,59.9,50.0,57.0,50.2,44.0,80,71,55,29.32,29.19,0,-999,0,0.00
2013-7-26,72.0,63.1,59.0,61.0,56.9,53.0,85,81,66,29.31,29.16,0,-999,0,0.00
2013-8-3,81.0,68.2,59.0,59.0,53.7,50.0,73,60,48,29.05,28.98,0,-999,0,0.00
2013-8-4,77.0,62.8,52.0,59.0,51.6,46.0,82,68,50,29.10,29.01,0,-999,0,0.00
2013-8-5,74.0,59.8,51.0,49.0,45.4,39.0,81,61,37,29.26,29.09,0,-999,0,0.00
2013-8-6,77.0,52.9,46.0,54.0,43.4,39.0,78,71,44,29.34,29.26,0,-999,0,0.00
2013-8-7,72.0,65.2,61.0,55.0,52.7,51.0,71,64,55,29.33,29.31,0,-999,0,0.00
2013-8-8,83.0,68.8,60.0,68.0,59.5,51.0,82,73,60,29.32,29.21,0,-999,0,0.00
2013-8-9,74.0,69.5,65.0,69.0,64.7,61.0,87,84,82,29.23,28.96,0,-999,0,0.00
2013-8-10,81.0,68.7,57.0,64.0,56.1,48.0,87,66,42,29.23,29.00,0,-999,0,0.00
2013-8-11,79.0,62.7,50.0,57.0,50.4,44.0,82,66,44,29.28,29.21,0,-999,0,0.00
2013-8-12,81.0,64.2,54.0,59.0,53.2,48.0,81,69,46,29.24,29.13,0,-999,0,0.00
2013-8-13,73.0,64.4,56.0,63.0,57.6,51.0,84,79,69,29.14,28.91,0,-999,0,0.00
2013-8-14,75.0,63.6,54.0,58.0,53.0,46.0,86,70,48,29.14,28.88,0,-999,0,0.00
2013-8-15,75.0,58.7,47.0,55.0,46.0,-99.9,81,69,47,29.31,29.14,0,-999,0,0.00
2013-8-16,79.0,61.7,50.0,57.0,50.3,44.0,82,68,45,29.40,29.30,0,-999,0,0.00
2013-8-17,82.0,64.0,51.0,59.0,52.2,46.0,83,68,42,29.49,29.40,0,-999,0,0.00
2013-8-18,79.0,65.1,54.0,63.0,55.4,48.0,82,72,55,29.49,29.29,0,-999,0,0.00
2013-8-19,82.0,66.1,54.0,63.0,52.6,-99.9,84,71,50,29.29,29.15,0,-999,0,0.00
2013-8-20,87.0,70.4,56.0,65.0,57.9,51.0,83,67,46,29.28,29.19,0,-999,0,0.00
2013-8-21,82.0,67.0,58.0,63.0,57.7,53.0,83,73,51,29.33,29.24,0,-999,0,0.00
2013-8-22,88.0,72.9,60.0,67.0,61.0,54.0,82,68,45,29.24,29.03,0,-999,0,0.00
2013-8-23,79.0,67.6,54.0,61.0,53.9,44.0,80,63,41,29.35,29.03,0,-999,0,0.00
2013-8-24,79.0,61.1,47.0,52.0,46.4,40.0,79,61,37,29.53,29.35,0,-999,0,0.00
2013-8-25,82.0,63.2,47.0,59.0,50.0,41.0,82,65,42,29.57,29.39,0,-999,0,0.00
2013-8-26,76.0,67.3,59.0,65.0,60.3,54.0,84,78,68,29.29,29.10,0,-999,0,0.00
2013-8-27,86.0,71.1,63.0,67.0,62.0,58.0,85,75,50,29.12,29.06,0,-999,0,0.00
2013-8-28,86.0,73.6,63.0,67.0,61.8,57.0,82,67,54,29.23,29.08,0,-999,0,0.00
2013-8-29,66.0,62.4,60.0,59.0,56.9,54.0,87,82,76,29.31,29.18,0,-999,0,0.00
2013-8-30,82.0,67.4,58.0,67.0,59.7,53.0,86,77,58,29.24,29.03,0,-999,0,0.00
2013-8-31,80.0,71.5,65.0,70.0,64.6,59.0,85,79,70,29.05,28.98,0,-999,0,0.00
2013-9-1,85.0,72.9,65.0,72.0,65.8,61.0,87,79,61,29.11,29.00,0,-999,0,0.00
2013-9-2,71.0,68.6,67.0,66.0,64.1,63.0,88,86,84,29.09,28.96,0,-999,0,0.00
2013-9-3,80.0,69.0,61.0,68.0,62.4,56.0,88,80,64,29.00,28.93,0,-999,0,0.00
2013-9-4,78.0,66.4,54.0,59.0,54.7,50.0,87,68,49,29.10,29.03,0,-999,0,0.00
2013-9-5,69.0,60.4,56.0,55.0,51.0,46.0,84,73,45,29.19,29.08,0,-999,0,0.00
2013-9-6,62.0,48.4,40.0,45.0,39.7,34.0,81,72,53,29.43,29.27,0,-999,0,0.00
2013-9-7,60.0,49.4,46.0,50.0,42.4,40.0,80,77,70,29.27,29.20,0,-999,0,0.00
2013-9-8,60.0,55.7,50.0,43.0,40.7,38.0,65,57,51,29.24,29.10,0,-999,0,0.00
2013-9-9,69.0,55.9,39.0,48.0,42.8,33.0,80,63,44,29.42,29.32,0,-999,0,0.00
2013-9-10,70.0,59.1,49.0,64.0,53.0,42.0,86,81,73,29.33,29.23,0,-999,0,0.00
2013-9-11,90.0,76.2,66.0,74.0,67.6,62.0,88,76,56,29.26,29.14,0,-999,0,0.00
2013-9-12,80.0,68.6,64.0,70.0,63.4,59.0,87,84,72,29.18,28.91,14,-988,14,0.00
2013-9-13,74.0,65.5,62.0,66.0,60.2,56.0,88,84,71,28.91,28.80,14,-972,14,0.00
2013-9-14,68.0,58.4,54.0,54.0,51.0,49.0,84,77,61,29.10,29.00,0,-999,0,0.00
2013-9-15,55.0,48.6,42.0,48.0,43.0,38.0,84,81,75,29.33,29.23,0,-999,0,0.00
2013-9-16,56.0,50.2,40.0,51.0,43.2,32.0,83,77,64,29.46,29.20,0,-999,0,0.00
2013-9-17,59.0,41.4,34.0,42.0,33.8,28.0,81,75,53,29.56,29.46,0,-999,0,0.00
2013-9-18,49.0,40.2,39.0,37.0,34.8,34.0,82,81,79,29.52,29.33,0,-999,0,0.00
2013-9-19,49.0,45.3,43.0,42.0,39.8,38.0,82,80,77,29.33,29.30,0,-999,0,0.00
2013-9-20,77.0,64.8,46.0,59.0,52.5,41.0,84,67,49,29.31,29.22,0,-999,0,0.00
2013-9-21,66.0,59.3,46.0,58.0,52.4,41.0,83,78,70,29.18,28.94,0,-999,0,0.00
2013-9-22,64.0,60.8,52.0,59.0,53.9,43.0,85,79,59,28.98,28.81,0,-999,0,0.00
2013-9-23,45.0,43.6,40.0,38.0,36.3,33.0,76,74,72,29.18,29.03,0,-999,0,0.00
2013-9-24,50.0,43.1,39.0,40.0,35.8,32.0,81,75,68,29.17,29.10,0,-999,0,0.00
2013-9-25,52.0,43.5,41.0,44.0,37.0,35.0,81,78,72,29.18,29.07,0,-999,0,0.00
2013-9-26,65.0,50.4,41.0,48.0,41.4,36.0,83,73,54,29.25,29.21,0,-999,0,0.00
2013-9-29,44.0,43.3,43.0,39.0,38.3,38.0,83,83,83,29.43,29.42,0,-999,0,0.00
2013-9-30,41.0,40.4,40.0,36.0,35.4,35.0,82,82,81,29.31,29.30,0,-999,0,0.02
2013-10-1,56.0,54.2,53.0,49.0,47.6,47.0,80,78,76,29.10,29.09,0,-999,0,0.00
2013-10-2,75.0,55.4,49.0,59.0,48.2,44.0,83,77,58,29.11,29.05,0,-999,0,0.00
2013-10-3,53.0,53.0,53.0,47.0,47.0,47.0,80,80,80,29.19,29.18,0,-999,0,0.00
2013-10-4,58.0,48.2,44.0,52.0,42.9,39.0,82,82,81,29.29,29.27,0,-999,0,0.00
2013-10-5,65.0,60.9,56.0,50.0,50.0,50.0,80,68,58,29.29,29.28,0,-999,0,0.00
2013-10-6,52.0,49.7,48.0,44.0,41.7,39.0,82,74,65,29.46,29.41,0,-999,0,0.00
2013-10-7,69.0,59.6,51.0,64.0,55.4,47.0,87,86,84,29.30,28.98,0,-999,0,0.00
2013-10-8,60.0,50.4,38.0,52.0,40.6,31.0,86,71,48,29.58,29.09,0,-999,0,0.00
2013-10-9,61.0,45.4,33.0,43.0,35.9,28.0,84,71,50,29.67,29.57,0,-999,0,0.00
2013-10-10,63.0,47.9,35.0,47.0,39.3,30.0,84,73,52,29.57,29.38,0,-999,0,0.00
2013-10-11,70.0,52.9,41.0,51.0,43.4,36.0,84,72,48,29.39,29.33,0,-999,0,0.00
2013-10-12,53.0,49.2,42.0,49.0,44.0,37.0,86,82,79,29.61,29.38,0,-999,0,0.00
2013-10-13,57.0,46.9,37.0,48.0,40.2,33.0,85,78,65,29.65,29.59,0,-999,0,0.00
2013-10-14,63.0,48.6,35.0,48.0,39.8,30.0,85,73,55,29.60,29.43,0,-999,0,0.00
2013-10-15,65.0,55.0,47.0,52.0,46.5,40.0,81,74,62,29.47,29.39,0,-999,0,0.00
2013-10-16,64.0,52.9,46.0,50.0,45.2,40.0,84,76,58,29.40,29.12,0,-999,0,0.00
2013-10-17,61.0,49.2,45.0,54.0,42.7,40.0,84,78,61,29.11,28.91,0,-999,0,0.00
2013-10-18,62.0,54.2,50.0,52.0,46.6,40.0,86,76,58,29.03,28.80,0,-999,0,0.00
2013-10-19,63.0,51.7,37.0,46.0,40.5,30.0,79,66,53,29.15,29.00,0,-999,0,0.00
2013-10-20,57.0,48.7,39.0,42.0,36.0,29.0,83,63,47,29.19,28.88,0,-999,0,0.00
2013-10-21,62.0,45.9,32.0,43.0,35.1,26.0,81,67,49,29.29,29.19,0,-999,0,0.00
2013-10-22,57.0,49.6,42.0,47.0,42.3,36.0,82,75,70,29.15,28.91,0,-999,0,0.00
2013-10-23,52.0,38.8,33.0,38.0,31.4,28.0,82,75,56,28.98,28.84,0,-999,0,0.00
2013-10-24,48.0,41.6,33.0,31.0,28.6,26.0,75,60,50,29.05,28.86,0,-999,0,0.00
2013-10-25,46.0,38.3,28.0,33.0,25.5,20.0,80,61,49,29.30,29.05,0,-999,0,0.00
2013-10-26,49.0,37.0,26.0,35.0,26.2,19.0,78,66,52,29.31,29.06,0,-999,0,0.00
2013-10-27,51.0,43.0,33.0,35.0,30.6,23.0,69,62,52,29.21,28.98,0,-999,0,0.00
2013-10-28,50.0,38.0,29.0,35.0,26.0,18.0,76,63,50,29.52,29.23,0,-999,0,0.00
2013-10-29,46.0,31.9,22.0,27.0,19.2,15.0,75,60,42,29.62,29.52,0,-999,0,0.00
2013-10-30,47.0,34.8,26.0,34.0,24.7,16.0,75,67,58,29.53,29.37,0,-999,0,0.00
2013-10-31,56.0,40.3,30.0,52.0,35.0,23.0,87,81,76,29.42,28.96,0,-999,0,0.00
2013-11-1,58.0,55.5,52.0,53.0,50.4,46.0,88,84,75,28.96,28.65,0,-999,0,0.00
2013-11-2,61.0,49.0,39.0,45.0,39.9,34.0,84,72,53,28.93,28.80,0,-999,0,0.00
2013-11-3,44.0,37.0,26.0,39.0,26.4,16.0,82,66,46,29.59,28.93,0,-999,0,0.00
2013-11-4,39.0,28.5,21.0,20.0,16.4,14.0,76,61,43,29.87,29.59,0,-999,0,0.00
2013-11-5,45.0,32.5,23.0,30.0,22.5,15.0,75,67,52,29.87,29.67,0,-999,0,0.00
2013-11-6,54.0,41.7,32.0,43.0,33.7,25.0,79,73,64,29.67,29.18,0,-999,0,0.00
2013-11-7,56.0,47.8,36.0,51.0,41.5,29.0,84,79,72,29.19,28.87,0,-999,0,0.00
2013-11-8,43.0,35.1,29.0,29.0,24.7,21.0,74,66,55,29.21,28.98,0,-999,0,0.00
2013-11-9,39.0,35.2,31.0,26.0,21.6,19.0,66,58,50,29.34,29.20,0,-999,0,0.00
2013-11-10,43.0,36.2,33.0,37.0,29.6,25.0,82,77,66,29.20,28.93,0,-999,0,0.00
2013-11-11,46.0,38.3,34.0,32.0,27.5,24.0,81,66,51,29.21,29.00,0,-999,0,0.00
2013-11-12,39.0,30.7,26.0,29.0,19.2,13.0,70,61,56,29.32,29.03,0,-999,0,0.00
2013-11-13,31.0,26.6,24.0,15.0,13.3,11.0,65,57,46,29.43,29.28,0,-999,0,0.00
2013-11-14,42.0,31.0,27.0,26.0,19.3,14.0,69,62,52,29.28,29.19,0,-999,0,0.00
2013-11-15,51.0,31.3,29.0,28.0,20.4,18.0,70,64,40,29.37,29.27,0,-999,0,0.00
2013-11-16,53.0,37.9,31.0,32.0,25.7,20.0,69,62,39,29.50,29.35,0,-999,0,0.00
2013-11-17,49.0,39.1,30.0,45.0,33.0,22.0,86,79,69,29.50,29.08,0,-999,0,0.00
2013-11-18,54.0,50.7,46.0,50.0,45.7,36.0,87,83,67,29.07,28.71,0,-999,0,0.00
2013-11-19,42.0,35.6,30.0,30.0,21.7,16.0,63,56,50,29.34,28.83,0,-999,0,0.00
2013-11-20,37.0,33.3,29.0,18.0,15.8,13.0,59,48,43,29.74,29.57,0,-999,0,0.00
2013-11-21,39.0,35.2,34.0,22.0,19.7,18.0,60,53,44,29.62,29.52,0,-999,0,0.00
2013-11-22,40.0,37.5,34.0,34.0,29.8,22.0,82,74,61,29.52,28.99,0,-999,0,0.00
2013-11-23,39.0,35.5,32.0,35.0,28.3,21.0,84,75,59,29.04,28.92,0,-999,0,0.00
2013-11-26,38.0,38.0,38.0,27.0,27.0,27.0,65,65,64,29.45,29.43,0,-999,0,0.00
2013-12-31,13.0,8.0,6.0,3.0,0.1,-1.0,74,69,63,29.27,29.20,0,-999,0,0.00
2014-1-1,24.0,13.5,6.0,11.0,4.6,0.0,76,68,55,29.52,29.28,0,-999,0,0.00
2014-1-2,13.0,6.6,-3.0,5.0,-1.5,-10.0,72,69,63,29.52,29.08,0,-999,0,0.00